When you browse on this site, cookies collect data to enhance your experience and personalize the content and advertising you see.
Visit our Privacy Policy to learn more. By continuing to use the site, you agree to this use of cookies and data.
  • Em Portugal
  • Lista de países
  • Para 7 dias
  • Temperatura da água
  • Mapas de satélite
  • Mapa do tempo
  • Widgets de tempo
  • user-avatar
    Iniciar Sessão

    Previsão horária em Belick

    Hoje, 18 Abril, Quinta-feira

    Tempo Temperatura Precipitação Vento Pressão Humidade
    00:00 +7°C° 0 mm 1 m/s 759 mmHg 74%
    01:00 +7°C° 0 mm 1 m/s 759 mmHg 75%
    02:00 +6°C° 0 mm 1 m/s 759 mmHg 74%
    03:00 +6°C° 0 mm 1 m/s 759 mmHg 75%
    04:00 +4°C° 0 mm 0 m/s 759 mmHg 75%
    05:00 +4°C° 0 mm 0 m/s 759 mmHg 76%
    06:00 +7°C° 0 mm 1 m/s 759 mmHg 71%
    07:00 +9°C° 0 mm 1 m/s 759 mmHg 66%
    08:00 +9°C° 0 mm 2 m/s 759 mmHg 61%
    09:00 +12°C° 0 mm 2 m/s 759 mmHg 55%
    10:00 +12°C° 0 mm 3 m/s 759 mmHg 49%
    11:00 +14°C° 0 mm 3 m/s 758 mmHg 44%
    12:00 +14°C° 0 mm 3 m/s 758 mmHg 42%
    13:00 +15°C° 0 mm 4 m/s 757 mmHg 40%
    14:00 +17°C° 0 mm 4 m/s 757 mmHg 38%
    15:00 +15°C° 0 mm 5 m/s 756 mmHg 39%
    16:00 +15°C° 0 mm 5 m/s 756 mmHg 40%
    17:00 +15°C° 0 mm 5 m/s 756 mmHg 41%
    18:00 +13°C° 0 mm 5 m/s 756 mmHg 46%
    19:00 +12°C° 0 mm 5 m/s 756 mmHg 50%
    20:00 +9°C° 0 mm 5 m/s 756 mmHg 55%
    21:00 +8°C° 0 mm 5 m/s 756 mmHg 57%
    22:00 +7°C° 0 mm 4 m/s 757 mmHg 59%
    23:00 +6°C° 0 mm 4 m/s 757 mmHg 62%

    Amanhã, 19 Abril, Sexta-feira

    Tempo Temperatura Precipitação Vento Pressão Humidade
    00:00 +5°C° 0 mm 4 m/s 757 mmHg 63%
    01:00 +5°C° 0 mm 5 m/s 757 mmHg 65%
    02:00 +3°C° 0 mm 5 m/s 758 mmHg 67%
    03:00 +3°C° 0 mm 5 m/s 758 mmHg 69%
    04:00 +3°C° 0 mm 5 m/s 758 mmHg 71%
    05:00 +2°C° 0 mm 5 m/s 758 mmHg 74%
    06:00 +3°C° 0 mm 5 m/s 758 mmHg 69%
    07:00 +6°C° 0 mm 5 m/s 758 mmHg 65%
    08:00 +7°C° 0 mm 6 m/s 759 mmHg 61%
    09:00 +8°C° 0 mm 6 m/s 759 mmHg 56%
    10:00 +9°C° 0 mm 6 m/s 759 mmHg 50%
    11:00 +12°C° 0 mm 5 m/s 759 mmHg 45%
    12:00 +12°C° 0 mm 5 m/s 759 mmHg 43%
    13:00 +13°C° 0 mm 5 m/s 759 mmHg 42%
    14:00 +13°C° 0 mm 4 m/s 759 mmHg 40%
    15:00 +13°C° 0 mm 4 m/s 759 mmHg 41%
    16:00 +13°C° 0 mm 4 m/s 759 mmHg 42%
    17:00 +12°C° 0 mm 4 m/s 759 mmHg 43%
    18:00 +11°C° 0 mm 3 m/s 759 mmHg 46%
    19:00 +10°C° 0 mm 3 m/s 759 mmHg 48%
    20:00 +9°C° 0 mm 2 m/s 759 mmHg 51%
    21:00 +9°C° 0 mm 1 m/s 759 mmHg 53%
    22:00 +8°C° 0 mm 1 m/s 759 mmHg 55%
    23:00 +8°C° 0 mm 1 m/s 759 mmHg 57%

    Depois de amanhã, 20 Abril, Sábado

    Tempo Temperatura Precipitação Vento Pressão Humidade
    00:00 +7°C° 0 mm 1 m/s 759 mmHg 58%
    01:00 +6°C° 0 mm 0 m/s 759 mmHg 59%
    02:00 +5°C° 0 mm 0 m/s 758 mmHg 60%
    03:00 +6°C° 0 mm 1 m/s 758 mmHg 60%
    04:00 +6°C° 0 mm 1 m/s 758 mmHg 61%
    05:00 +6°C° 0 mm 1 m/s 758 mmHg 61%
    06:00 +7°C° 0 mm 1 m/s 758 mmHg 58%
    07:00 +8°C° 0 mm 2 m/s 758 mmHg 55%
    08:00 +9°C° 0 mm 2 m/s 758 mmHg 51%
    09:00 +10°C° 0 mm 2 m/s 757 mmHg 48%
    10:00 +13°C° 0 mm 2 m/s 757 mmHg 45%
    11:00 +13°C° 0 mm 3 m/s 757 mmHg 42%
    12:00 +13°C° 0 mm 3 m/s 757 mmHg 43%
    13:00 +13°C° 0 mm 3 m/s 756 mmHg 43%
    14:00 +13°C° 0 mm 3 m/s 756 mmHg 44%
    15:00 +13°C° 0 mm 3 m/s 756 mmHg 46%
    16:00 +14°C° 0 mm 2 m/s 756 mmHg 49%
    17:00 +13°C° 0 mm 2 m/s 755 mmHg 51%
    18:00 +12°C° 0 mm 2 m/s 755 mmHg 57%
    19:00 +11°C° 0 mm 1 m/s 755 mmHg 62%
    20:00 +10°C° 0 mm 1 m/s 755 mmHg 67%
    21:00 +10°C° 0.2 mm 1 m/s 755 mmHg 71%
    22:00 +10°C° 0.2 mm 1 m/s 755 mmHg 75%
    23:00 +8°C° 0.2 mm 2 m/s 755 mmHg 78%

    21 Abril, Domingo

    Tempo Temperatura Precipitação Vento Pressão Humidade
    00:00 +8°C° 0.2 mm 2 m/s 755 mmHg 81%
    01:00 +8°C° 0.2 mm 2 m/s 755 mmHg 83%
    02:00 +7°C° 0.2 mm 2 m/s 755 mmHg 86%
    03:00 +7°C° 0.1 mm 3 m/s 755 mmHg 86%
    04:00 +7°C° 0.1 mm 3 m/s 755 mmHg 87%
    05:00 +5°C° 0.1 mm 3 m/s 754 mmHg 87%
    06:00 +7°C° 0 mm 3 m/s 755 mmHg 83%
    07:00 +8°C° 0 mm 3 m/s 755 mmHg 79%
    08:00 +8°C° 0 mm 4 m/s 755 mmHg 75%
    09:00 +10°C° 0.1 mm 4 m/s 755 mmHg 68%
    10:00 +10°C° 0.1 mm 5 m/s 755 mmHg 61%
    11:00 +12°C° 0.1 mm 5 m/s 755 mmHg 54%
    12:00 +13°C° 0 mm 5 m/s 755 mmHg 51%
    13:00 +14°C° 0 mm 5 m/s 755 mmHg 47%
    14:00 +14°C° 0 mm 5 m/s 755 mmHg 44%
    15:00 +14°C° 0 mm 5 m/s 755 mmHg 45%
    16:00 +13°C° 0 mm 5 m/s 755 mmHg 46%
    17:00 +13°C° 0 mm 5 m/s 755 mmHg 47%
    18:00 +12°C° 0 mm 5 m/s 755 mmHg 52%
    19:00 +10°C° 0 mm 4 m/s 756 mmHg 56%
    20:00 +8°C° 0 mm 4 m/s 756 mmHg 60%
    21:00 +7°C° 0 mm 4 m/s 756 mmHg 60%
    22:00 +7°C° 0 mm 4 m/s 757 mmHg 61%
    23:00 +8°C° 0 mm 3 m/s 757 mmHg 61%

    22 Abril, Segunda-feira

    Tempo Temperatura Precipitação Vento Pressão Humidade
    00:00 +7°C° 0 mm 3 m/s 757 mmHg 63%
    01:00 +5°C° 0 mm 3 m/s 757 mmHg 65%
    02:00 +5°C° 0 mm 3 m/s 757 mmHg 67%
    03:00 +5°C° 0 mm 3 m/s 758 mmHg 67%
    04:00 +5°C° 0 mm 3 m/s 758 mmHg 66%
    05:00 +7°C° 0 mm 3 m/s 758 mmHg 66%
    06:00 +8°C° 0 mm 3 m/s 758 mmHg 62%
    07:00 +9°C° 0 mm 3 m/s 759 mmHg 58%
    08:00 +10°C° 0 mm 4 m/s 759 mmHg 54%
    09:00 +11°C° 0 mm 4 m/s 759 mmHg 49%
    10:00 +12°C° 0 mm 4 m/s 759 mmHg 44%
    11:00 +13°C° 0 mm 4 m/s 759 mmHg 38%
    12:00 +13°C° 0 mm 4 m/s 759 mmHg 38%
    13:00 +13°C° 0 mm 4 m/s 759 mmHg 38%
    14:00 +14°C° 0 mm 3 m/s 759 mmHg 38%
    15:00 +14°C° 0 mm 3 m/s 759 mmHg 39%
    16:00 +14°C° 0 mm 3 m/s 759 mmHg 40%
    17:00 +13°C° 0 mm 3 m/s 759 mmHg 41%
    18:00 +12°C° 0 mm 3 m/s 759 mmHg 46%
    19:00 +10°C° 0 mm 2 m/s 760 mmHg 51%
    20:00 +9°C° 0 mm 2 m/s 760 mmHg 56%
    21:00 +8°C° 0 mm 2 m/s 760 mmHg 57%
    22:00 +8°C° 0 mm 2 m/s 761 mmHg 59%
    23:00 +7°C° 0 mm 2 m/s 761 mmHg 61%

    23 Abril, Terça-feira

    Tempo Temperatura Precipitação Vento Pressão Humidade
    00:00 +7°C° 0 mm 2 m/s 761 mmHg 62%
    01:00 +6°C° 0 mm 2 m/s 761 mmHg 63%
    02:00 +6°C° 0 mm 2 m/s 762 mmHg 65%
    03:00 +6°C° 0 mm 2 m/s 762 mmHg 66%
    04:00 +6°C° 0 mm 2 m/s 762 mmHg 67%
    05:00 +5°C° 0 mm 2 m/s 762 mmHg 68%
    06:00 +7°C° 0 mm 2 m/s 762 mmHg 63%
    07:00 +9°C° 0 mm 2 m/s 762 mmHg 58%
    08:00 +11°C° 0 mm 3 m/s 763 mmHg 53%
    09:00 +13°C° 0 mm 3 m/s 763 mmHg 47%
    10:00 +14°C° 0 mm 3 m/s 763 mmHg 42%
    11:00 +16°C° 0 mm 3 m/s 763 mmHg 37%
    12:00 +16°C° 0 mm 3 m/s 762 mmHg 37%
    13:00 +16°C° 0 mm 3 m/s 762 mmHg 37%
    14:00 +16°C° 0 mm 3 m/s 762 mmHg 37%
    15:00 +16°C° 0 mm 3 m/s 762 mmHg 38%
    16:00 +16°C° 0 mm 3 m/s 761 mmHg 39%
    17:00 +16°C° 0 mm 3 m/s 761 mmHg 41%
    18:00 +13°C° 0 mm 3 m/s 761 mmHg 46%
    19:00 +11°C° 0 mm 3 m/s 761 mmHg 51%
    20:00 +10°C° 0 mm 2 m/s 761 mmHg 56%
    21:00 +9°C° 0 mm 2 m/s 761 mmHg 57%
    22:00 +8°C° 0 mm 2 m/s 761 mmHg 59%
    23:00 +8°C° 0 mm 2 m/s 761 mmHg 60%
    Mostrar mais